Year,Month,Day,Hour,Minute,Value (Times are PST for windspeed in km/hr)
2011,06,14,00,00,5.10
2011,06,14,00,01,8.20
2011,06,14,00,02,12.80
2011,06,14,00,03,10.30
2011,06,14,00,04,9.90
2011,06,14,00,05,7.20
2011,06,14,00,06,7.20
2011,06,14,00,07,10.50
2011,06,14,00,08,6.10
2011,06,14,00,09,7.60
2011,06,14,00,10,13.60
2011,06,14,00,11,7.00
2011,06,14,00,12,8.70
2011,06,14,00,13,9.20
2011,06,14,00,14,9.90
2011,06,14,00,15,9.30
2011,06,14,00,16,8.60
2011,06,14,00,17,7.10
2011,06,14,00,18,5.20
2011,06,14,00,19,5.10
2011,06,14,00,20,6.30
2011,06,14,00,21,7.40
2011,06,14,00,22,7.60
2011,06,14,00,23,6.80
2011,06,14,00,24,1.60
2011,06,14,00,25,4.80
2011,06,14,00,26,4.40
2011,06,14,00,27,7.20
2011,06,14,00,28,9.00
2011,06,14,00,29,10.40
2011,06,14,00,30,10.80
2011,06,14,00,31,10.60
2011,06,14,00,32,8.80
2011,06,14,00,33,9.00
2011,06,14,00,34,9.40
2011,06,14,00,35,11.00
2011,06,14,00,36,11.60
2011,06,14,00,37,10.50
2011,06,14,00,38,10.40
2011,06,14,00,39,9.30
2011,06,14,00,40,10.40
2011,06,14,00,41,9.80
2011,06,14,00,42,16.90
2011,06,14,00,43,12.00
2011,06,14,00,44,11.10
2011,06,14,00,45,10.70
2011,06,14,00,46,9.00
2011,06,14,00,47,10.50
2011,06,14,00,48,16.10
2011,06,14,00,49,15.60
2011,06,14,00,50,14.70
2011,06,14,00,51,13.30
2011,06,14,00,52,16.60
2011,06,14,00,53,13.50
2011,06,14,00,54,10.60
2011,06,14,00,55,9.40
2011,06,14,00,56,11.30
2011,06,14,00,57,10.80
2011,06,14,00,58,9.30
2011,06,14,00,59,11.80
2011,06,14,01,00,8.10
2011,06,14,01,01,9.00
2011,06,14,01,02,12.80
2011,06,14,01,03,9.40
2011,06,14,01,04,8.10
2011,06,14,01,05,8.90
2011,06,14,01,06,7.40
2011,06,14,01,07,5.80
2011,06,14,01,08,4.60
2011,06,14,01,09,5.00
2011,06,14,01,10,7.00
2011,06,14,01,11,6.50
2011,06,14,01,12,5.70
2011,06,14,01,13,8.00
2011,06,14,01,14,10.90
2011,06,14,01,15,9.40
2011,06,14,01,16,12.70
2011,06,14,01,17,12.20
2011,06,14,01,18,13.20
2011,06,14,01,19,9.60
2011,06,14,01,20,9.30
2011,06,14,01,21,6.40
2011,06,14,01,22,11.30
2011,06,14,01,23,8.50
2011,06,14,01,24,5.50
2011,06,14,01,25,5.60
2011,06,14,01,26,8.80
2011,06,14,01,27,11.00
2011,06,14,01,28,7.50
2011,06,14,01,29,11.30
2011,06,14,01,30,11.70
2011,06,14,01,31,10.00
2011,06,14,01,32,11.00
2011,06,14,01,33,9.20
2011,06,14,01,34,6.80
2011,06,14,01,35,6.10
2011,06,14,01,36,7.10
2011,06,14,01,37,8.80
2011,06,14,01,38,8.20
2011,06,14,01,39,6.10
2011,06,14,01,40,3.80
2011,06,14,01,41,6.80
2011,06,14,01,42,7.70
2011,06,14,01,43,8.00
2011,06,14,01,44,5.70
2011,06,14,01,45,5.60
2011,06,14,01,46,4.90
2011,06,14,01,47,4.10
2011,06,14,01,48,5.40
2011,06,14,01,49,3.60
2011,06,14,01,50,6.40
2011,06,14,01,51,5.30
2011,06,14,01,52,2.60
2011,06,14,01,53,2.10
2011,06,14,01,54,6.20
2011,06,14,01,55,5.40
2011,06,14,01,56,3.30
2011,06,14,01,57,4.80
2011,06,14,01,58,5.90
2011,06,14,01,59,1.50
2011,06,14,02,00,0.20
2011,06,14,02,01,0.00
2011,06,14,02,02,5.20
2011,06,14,02,03,4.80
2011,06,14,02,04,2.80
2011,06,14,02,05,1.50
2011,06,14,02,06,4.70
2011,06,14,02,07,4.40
2011,06,14,02,08,4.00
2011,06,14,02,09,4.90
2011,06,14,02,10,1.00
2011,06,14,02,11,6.00
2011,06,14,02,12,1.50
2011,06,14,02,13,4.00
2011,06,14,02,14,8.40
2011,06,14,02,15,7.40
2011,06,14,02,16,3.60
2011,06,14,02,17,2.60
2011,06,14,02,18,3.10
2011,06,14,02,19,4.60
2011,06,14,02,20,4.20
2011,06,14,02,21,2.00
2011,06,14,02,22,4.40
2011,06,14,02,23,5.60
2011,06,14,02,24,8.80
2011,06,14,02,25,3.40
2011,06,14,02,26,0.50
2011,06,14,02,27,1.10
2011,06,14,02,28,2.40
2011,06,14,02,29,1.90
2011,06,14,02,30,1.60
2011,06,14,02,31,0.10
2011,06,14,02,32,0.00
2011,06,14,02,33,0.50
2011,06,14,02,34,1.90
2011,06,14,02,35,0.50
2011,06,14,02,36,2.60
2011,06,14,02,37,0.80
2011,06,14,02,38,0.00
2011,06,14,02,39,1.50
2011,06,14,02,40,2.50
2011,06,14,02,41,1.50
2011,06,14,02,42,3.10
2011,06,14,02,43,2.10
2011,06,14,02,44,2.10
2011,06,14,02,45,1.90
2011,06,14,02,46,3.40
2011,06,14,02,47,2.10
2011,06,14,02,48,2.00
2011,06,14,02,49,2.50
2011,06,14,02,50,1.20
2011,06,14,02,51,1.30
2011,06,14,02,52,1.60
2011,06,14,02,53,0.80
2011,06,14,02,54,0.10
2011,06,14,02,55,0.30
2011,06,14,02,56,0.00
2011,06,14,02,57,0.00
2011,06,14,02,58,0.00
2011,06,14,02,59,0.40
2011,06,14,03,00,0.70
2011,06,14,03,01,0.10
2011,06,14,03,02,0.00
2011,06,14,03,06,0.10
2011,06,14,03,07,0.00
2011,06,14,03,08,0.00
2011,06,14,03,09,0.20
2011,06,14,03,10,0.00
2011,06,14,03,11,1.30
2011,06,14,03,12,1.30
2011,06,14,03,13,0.50
2011,06,14,03,14,0.50
2011,06,14,03,15,0.00
2011,06,14,03,16,0.00
2011,06,14,03,17,1.00
2011,06,14,03,18,2.20
2011,06,14,03,19,1.50
2011,06,14,03,20,1.50
2011,06,14,03,21,0.20
2011,06,14,03,22,1.80
2011,06,14,03,23,2.00
2011,06,14,03,24,1.60
2011,06,14,03,25,2.10
2011,06,14,03,26,2.30
2011,06,14,03,27,2.80
2011,06,14,03,28,2.90
2011,06,14,03,29,2.10
2011,06,14,03,30,0.80
2011,06,14,03,31,1.50
2011,06,14,03,32,0.20
2011,06,14,03,33,0.30
2011,06,14,03,34,0.00
2011,06,14,03,35,0.10
2011,06,14,03,36,0.10
2011,06,14,03,37,0.10
2011,06,14,03,38,0.00
2011,06,14,03,39,0.00
2011,06,14,03,40,0.60
2011,06,14,03,41,0.10
2011,06,14,03,42,0.10
2011,06,14,03,43,0.20
2011,06,14,03,44,0.30
2011,06,14,03,45,1.20
2011,06,14,03,46,1.40
2011,06,14,03,47,1.30
2011,06,14,03,48,0.50
2011,06,14,03,49,0.00
2011,06,14,03,50,0.00
2011,06,14,03,51,0.40
2011,06,14,03,52,1.90
2011,06,14,03,53,2.60
2011,06,14,03,54,2.50
2011,06,14,03,55,1.80
2011,06,14,03,56,0.50
2011,06,14,03,57,0.70
2011,06,14,03,58,1.70
2011,06,14,03,59,0.20
2011,06,14,04,00,2.30
2011,06,14,04,01,1.50
2011,06,14,04,02,2.10
2011,06,14,04,03,4.10
2011,06,14,04,04,3.50
2011,06,14,04,05,3.20
2011,06,14,04,06,1.90
2011,06,14,04,07,1.10
2011,06,14,04,08,0.20
2011,06,14,04,09,3.10
2011,06,14,04,10,2.30
2011,06,14,04,11,1.80
2011,06,14,04,12,3.10
2011,06,14,04,13,2.50
2011,06,14,04,14,2.40
2011,06,14,04,15,1.90
2011,06,14,04,16,1.80
2011,06,14,04,17,4.10
2011,06,14,04,18,2.00
2011,06,14,04,19,1.50
2011,06,14,04,20,1.80
2011,06,14,04,21,2.90
2011,06,14,04,22,1.20
2011,06,14,04,23,1.20
2011,06,14,04,24,1.80
2011,06,14,04,25,1.10
2011,06,14,04,26,0.00
2011,06,14,04,27,1.70
2011,06,14,04,28,0.70
2011,06,14,04,29,0.40
2011,06,14,04,30,1.40
2011,06,14,04,31,1.70
2011,06,14,04,32,1.90
2011,06,14,04,33,1.40
2011,06,14,04,34,0.90
2011,06,14,04,35,1.80
2011,06,14,04,36,0.80
2011,06,14,04,37,1.80
2011,06,14,04,38,0.50
2011,06,14,04,39,0.30
2011,06,14,04,40,0.00
2011,06,14,04,41,2.20
2011,06,14,04,42,1.70
2011,06,14,04,43,0.80
2011,06,14,04,44,1.30
2011,06,14,04,45,1.90
2011,06,14,04,46,0.90
2011,06,14,04,47,0.50
2011,06,14,04,48,1.80
2011,06,14,04,49,1.50
2011,06,14,04,50,1.30
2011,06,14,04,51,4.00
2011,06,14,04,52,1.00
2011,06,14,04,53,0.40
2011,06,14,04,54,0.50
2011,06,14,04,55,0.30
2011,06,14,04,56,0.20
2011,06,14,04,57,0.00
2011,06,14,04,58,0.00
2011,06,14,04,59,0.00
2011,06,14,05,00,0.00
2011,06,14,05,01,0.10
2011,06,14,05,02,0.60
2011,06,14,05,03,1.40
2011,06,14,05,04,1.10
2011,06,14,05,05,0.00
2011,06,14,05,06,0.00
2011,06,14,05,07,0.00
2011,06,14,05,08,0.00
2011,06,14,05,09,0.00
2011,06,14,05,10,0.00
2011,06,14,05,11,0.20
2011,06,14,05,12,0.00
2011,06,14,05,13,0.00
2011,06,14,05,14,0.00
2011,06,14,05,15,0.00
2011,06,14,05,16,0.00
2011,06,14,05,17,0.00
2011,06,14,05,18,0.20
2011,06,14,05,19,1.50
2011,06,14,05,20,3.30
2011,06,14,05,21,0.70
2011,06,14,05,22,1.10
2011,06,14,05,23,1.80
2011,06,14,05,24,2.10
2011,06,14,05,25,2.40
2011,06,14,05,26,2.00
2011,06,14,05,27,0.80
2011,06,14,05,28,1.80
2011,06,14,05,29,0.50
2011,06,14,05,30,0.10
2011,06,14,05,31,0.00
2011,06,14,05,32,0.00
2011,06,14,05,33,0.00
2011,06,14,05,34,1.30
2011,06,14,05,35,0.70
2011,06,14,05,36,5.70
2011,06,14,05,37,4.40
2011,06,14,05,38,1.50
2011,06,14,05,39,0.40
2011,06,14,05,40,0.10
2011,06,14,05,41,0.80
2011,06,14,05,42,1.00
2011,06,14,05,43,0.00
2011,06,14,05,44,0.10
2011,06,14,05,45,5.40
2011,06,14,05,46,3.40
2011,06,14,05,47,3.10
2011,06,14,05,48,1.00
2011,06,14,05,49,1.50
2011,06,14,05,50,6.90
2011,06,14,05,51,4.80
2011,06,14,05,52,5.80
2011,06,14,05,53,5.10
2011,06,14,05,54,2.90
2011,06,14,05,55,1.80
2011,06,14,05,56,5.80
2011,06,14,05,57,3.10
2011,06,14,05,58,2.40
2011,06,14,05,59,2.10
2011,06,14,06,00,1.60
2011,06,14,06,01,2.40
2011,06,14,06,02,2.10
2011,06,14,06,03,0.10
2011,06,14,06,04,0.20
2011,06,14,06,05,3.90
2011,06,14,06,06,2.60
2011,06,14,06,07,0.20
2011,06,14,06,08,1.30
2011,06,14,06,09,0.90
2011,06,14,06,10,0.20
2011,06,14,06,11,1.70
2011,06,14,06,12,4.70
2011,06,14,06,13,3.70
2011,06,14,06,14,3.70
2011,06,14,06,15,2.60
2011,06,14,06,16,1.00
2011,06,14,06,17,2.40
2011,06,14,06,18,1.80
2011,06,14,06,19,5.10
2011,06,14,06,20,8.70
2011,06,14,06,21,6.90
2011,06,14,06,22,5.20
2011,06,14,06,23,2.40
2011,06,14,06,24,4.30
2011,06,14,06,25,2.80
2011,06,14,06,26,7.40
2011,06,14,06,27,4.30
2011,06,14,06,28,2.60
2011,06,14,06,29,3.80
2011,06,14,06,30,5.00
2011,06,14,06,31,3.40
2011,06,14,06,32,3.60
2011,06,14,06,33,2.30
2011,06,14,06,34,7.40
2011,06,14,06,35,5.60
2011,06,14,06,36,3.40
2011,06,14,06,37,1.80
2011,06,14,06,38,1.60
2011,06,14,06,39,3.90
2011,06,14,06,40,2.60
2011,06,14,06,41,0.00
2011,06,14,06,42,1.50
2011,06,14,06,43,0.80
2011,06,14,06,44,1.60
2011,06,14,06,45,3.40
2011,06,14,06,46,3.90
2011,06,14,06,47,2.70
2011,06,14,06,48,1.10
2011,06,14,06,49,0.10
2011,06,14,06,50,0.00
2011,06,14,06,51,1.50
2011,06,14,06,52,1.50
2011,06,14,06,53,1.10
2011,06,14,06,54,0.10
2011,06,14,06,55,0.00
2011,06,14,06,56,0.00
2011,06,14,06,57,0.00
2011,06,14,06,58,1.00
2011,06,14,06,59,1.70
2011,06,14,07,00,1.80
2011,06,14,07,01,2.10
2011,06,14,07,02,1.20
2011,06,14,07,03,1.50
2011,06,14,07,04,1.50
2011,06,14,07,05,0.20
2011,06,14,07,06,0.50
2011,06,14,07,07,0.50
2011,06,14,07,08,0.10
2011,06,14,07,09,0.10
2011,06,14,07,10,1.50
2011,06,14,07,11,0.30
2011,06,14,07,12,1.90
2011,06,14,07,13,2.10
2011,06,14,07,14,1.50
2011,06,14,07,15,1.80
2011,06,14,07,16,1.60
2011,06,14,07,17,2.40
2011,06,14,07,18,2.50
2011,06,14,07,19,1.00
2011,06,14,07,20,0.00
2011,06,14,07,21,0.20
2011,06,14,07,22,0.10
2011,06,14,07,23,0.20
2011,06,14,07,24,1.70
2011,06,14,07,25,3.20
2011,06,14,07,26,3.00
2011,06,14,07,27,4.00
2011,06,14,07,28,5.40
2011,06,14,07,29,3.30
2011,06,14,07,30,4.40
2011,06,14,07,31,4.50
2011,06,14,07,32,3.00
2011,06,14,07,33,4.60
2011,06,14,07,34,3.90
2011,06,14,07,35,4.00
2011,06,14,07,36,3.10
2011,06,14,07,37,2.30
2011,06,14,07,38,0.20
2011,06,14,07,39,1.80
2011,06,14,07,40,3.80
2011,06,14,07,41,4.40
2011,06,14,07,42,4.20
2011,06,14,07,43,4.80
2011,06,14,07,44,4.00
2011,06,14,07,45,5.80
2011,06,14,07,46,4.20
2011,06,14,07,47,8.00
2011,06,14,07,48,8.90
2011,06,14,07,49,7.00
2011,06,14,07,50,6.60
2011,06,14,07,51,9.30
2011,06,14,07,52,8.40
2011,06,14,07,53,8.60
2011,06,14,07,54,7.80
2011,06,14,07,55,8.10
2011,06,14,07,56,6.90
2011,06,14,07,57,8.90
2011,06,14,07,58,6.40
2011,06,14,07,59,4.90
2011,06,14,08,00,9.40
2011,06,14,08,01,10.30
2011,06,14,08,02,11.20
2011,06,14,08,03,7.40
2011,06,14,08,04,4.20
2011,06,14,08,05,6.00
2011,06,14,08,06,3.90
2011,06,14,08,07,2.70
2011,06,14,08,08,7.00
2011,06,14,08,09,2.30
2011,06,14,08,10,4.00
2011,06,14,08,11,9.50
2011,06,14,08,12,5.90
2011,06,14,08,13,5.30
2011,06,14,08,14,4.80
2011,06,14,08,15,7.20
2011,06,14,08,16,5.10
2011,06,14,08,17,4.10
2011,06,14,08,18,4.50
2011,06,14,08,19,6.40
2011,06,14,08,20,7.90
2011,06,14,08,21,8.40
2011,06,14,08,22,10.30
2011,06,14,08,23,4.80
2011,06,14,08,24,4.70
2011,06,14,08,25,8.00
2011,06,14,08,26,7.30
2011,06,14,08,27,8.60
2011,06,14,08,28,7.10
2011,06,14,08,29,6.10
2011,06,14,08,30,5.30
2011,06,14,08,31,7.40
2011,06,14,08,32,5.70
2011,06,14,08,33,6.70
2011,06,14,08,34,6.90
2011,06,14,08,35,6.80
2011,06,14,08,36,6.70
2011,06,14,08,37,4.00
2011,06,14,08,38,5.10
2011,06,14,08,39,5.90
2011,06,14,08,40,6.10
2011,06,14,08,41,6.50
2011,06,14,08,42,6.20
2011,06,14,08,43,5.80
2011,06,14,08,44,6.30
2011,06,14,08,45,6.70
2011,06,14,08,46,7.70
2011,06,14,08,47,6.00
2011,06,14,08,48,3.20
2011,06,14,08,49,5.90
2011,06,14,08,50,4.40
2011,06,14,08,51,7.60
2011,06,14,08,52,7.50
2011,06,14,08,53,7.70
2011,06,14,08,54,2.90
2011,06,14,08,55,5.70
2011,06,14,08,56,4.00
2011,06,14,08,57,4.30
2011,06,14,08,58,5.10
2011,06,14,08,59,2.40
2011,06,14,09,00,6.30
2011,06,14,09,01,8.60
2011,06,14,09,02,4.80
2011,06,14,09,03,6.30
2011,06,14,09,04,5.70
2011,06,14,09,05,4.80
2011,06,14,09,06,4.60
2011,06,14,09,07,7.30
2011,06,14,09,08,3.80
2011,06,14,09,09,3.80
2011,06,14,09,10,6.40
2011,06,14,09,11,6.90
2011,06,14,09,12,6.70
2011,06,14,09,13,6.90
2011,06,14,09,14,5.30
2011,06,14,09,15,5.30
2011,06,14,09,16,4.20
2011,06,14,09,17,6.00
2011,06,14,09,18,5.60
2011,06,14,09,19,4.90
2011,06,14,09,20,4.40
2011,06,14,09,21,2.30
2011,06,14,09,22,2.60
2011,06,14,09,23,2.70
2011,06,14,09,24,3.40
2011,06,14,09,25,1.10
2011,06,14,09,26,4.90
2011,06,14,09,27,6.60
2011,06,14,09,28,6.10
2011,06,14,09,29,4.10
2011,06,14,09,30,1.90
2011,06,14,09,31,4.90
2011,06,14,09,32,6.40
2011,06,14,09,33,6.00
2011,06,14,09,34,4.80
2011,06,14,09,35,5.80
2011,06,14,09,36,4.50
2011,06,14,09,37,1.80
2011,06,14,09,38,5.50
2011,06,14,09,39,5.40
2011,06,14,09,40,4.20
2011,06,14,09,41,5.90
2011,06,14,09,42,7.10
2011,06,14,09,43,5.80
2011,06,14,09,44,3.40
2011,06,14,09,45,5.10
2011,06,14,09,46,8.20
2011,06,14,09,47,9.00
2011,06,14,09,48,8.70
2011,06,14,09,49,7.20
2011,06,14,09,50,6.10
2011,06,14,09,51,4.60
2011,06,14,09,52,7.80
2011,06,14,09,53,5.20
2011,06,14,09,54,5.90
2011,06,14,09,55,3.90
2011,06,14,09,56,6.80
2011,06,14,09,57,9.00
2011,06,14,09,58,11.30
2011,06,14,09,59,9.40
2011,06,14,10,00,5.40
2011,06,14,10,01,6.40
2011,06,14,10,02,5.70
2011,06,14,10,03,2.90
2011,06,14,10,04,3.10
2011,06,14,10,05,3.40
2011,06,14,10,06,4.40
2011,06,14,10,07,5.30
2011,06,14,10,08,6.80
2011,06,14,10,09,5.80
2011,06,14,10,10,6.40
2011,06,14,10,11,6.20
2011,06,14,10,12,7.40
2011,06,14,10,13,6.60
2011,06,14,10,14,4.00
2011,06,14,10,15,7.90
2011,06,14,10,16,8.20
2011,06,14,10,17,9.20
2011,06,14,10,18,9.70
2011,06,14,10,19,9.10
2011,06,14,10,20,5.60
2011,06,14,10,21,8.10
2011,06,14,10,22,7.50
2011,06,14,10,23,9.70
2011,06,14,10,24,9.00
2011,06,14,10,25,8.40
2011,06,14,10,26,6.70
2011,06,14,10,27,3.00
2011,06,14,10,28,1.80
2011,06,14,10,29,8.10
2011,06,14,10,30,8.30
2011,06,14,10,31,3.70
2011,06,14,10,32,7.20
2011,06,14,10,33,8.90
2011,06,14,10,34,9.40
2011,06,14,10,35,13.40
2011,06,14,10,36,14.30
2011,06,14,10,37,5.60
2011,06,14,10,38,8.20
2011,06,14,10,39,9.00
2011,06,14,10,40,8.20
2011,06,14,10,41,5.20
2011,06,14,10,42,10.60
2011,06,14,10,43,5.70
2011,06,14,10,44,7.10
2011,06,14,10,45,9.00
2011,06,14,10,46,9.40
2011,06,14,10,47,6.30
2011,06,14,10,48,7.90
2011,06,14,10,49,7.00
2011,06,14,10,50,8.90
2011,06,14,10,51,9.20
2011,06,14,10,52,8.70
2011,06,14,10,53,7.50
2011,06,14,10,54,4.40
2011,06,14,10,55,7.90
2011,06,14,10,56,6.30
2011,06,14,10,57,6.70
2011,06,14,10,58,7.70
2011,06,14,10,59,5.10
2011,06,14,11,00,6.40
2011,06,14,11,01,6.20
2011,06,14,11,02,4.50
2011,06,14,11,03,6.40
2011,06,14,11,04,8.70
2011,06,14,11,05,9.70
2011,06,14,11,06,7.20
2011,06,14,11,07,6.00
2011,06,14,11,08,3.70
2011,06,14,11,09,4.30
2011,06,14,11,10,3.10
2011,06,14,11,11,7.40
2011,06,14,11,12,10.70
2011,06,14,11,13,6.70
2011,06,14,11,14,3.10
2011,06,14,11,15,3.20
2011,06,14,11,16,4.70
2011,06,14,11,17,4.40
2011,06,14,11,18,4.70
2011,06,14,11,19,4.70
2011,06,14,11,20,10.20
2011,06,14,11,21,7.30
2011,06,14,11,22,4.50
2011,06,14,11,23,1.20
2011,06,14,11,24,4.00
2011,06,14,11,25,1.20
2011,06,14,11,26,0.60
2011,06,14,11,27,2.50
2011,06,14,11,28,4.80
2011,06,14,11,29,10.30
2011,06,14,11,30,8.70
2011,06,14,11,31,10.80
2011,06,14,11,32,4.40
2011,06,14,11,33,8.60
2011,06,14,11,34,9.10
2011,06,14,11,35,10.70
2011,06,14,11,36,7.60
2011,06,14,11,37,10.00
2011,06,14,11,38,7.50
2011,06,14,11,39,9.10
2011,06,14,11,40,15.40
2011,06,14,11,41,10.60
2011,06,14,11,42,10.10
2011,06,14,11,43,9.60
2011,06,14,11,44,7.40
2011,06,14,11,45,8.70
2011,06,14,11,46,6.60
2011,06,14,11,47,9.40
2011,06,14,11,48,10.40
2011,06,14,11,49,13.00
2011,06,14,11,50,10.30
2011,06,14,11,51,8.40
2011,06,14,11,52,7.60
2011,06,14,11,53,8.20
2011,06,14,11,54,6.00
2011,06,14,11,55,6.10
2011,06,14,11,56,7.00
2011,06,14,11,57,8.10
2011,06,14,11,58,2.80
2011,06,14,11,59,2.50
2011,06,14,12,00,3.30
2011,06,14,12,01,6.40
2011,06,14,12,02,3.80
2011,06,14,12,03,6.50
2011,06,14,12,04,8.80
2011,06,14,12,05,7.00
2011,06,14,12,06,1.80
2011,06,14,12,07,5.60
2011,06,14,12,08,7.70
2011,06,14,12,09,7.20
2011,06,14,12,10,10.00
2011,06,14,12,11,4.10
2011,06,14,12,12,7.20
2011,06,14,12,13,6.60
2011,06,14,12,14,8.50
2011,06,14,12,15,13.30
2011,06,14,12,16,14.30
2011,06,14,12,17,11.30
2011,06,14,12,18,8.40
2011,06,14,12,19,10.80
2011,06,14,12,20,11.20
2011,06,14,12,21,12.60
2011,06,14,12,22,5.80
2011,06,14,12,23,4.80
2011,06,14,12,24,7.70
2011,06,14,12,25,11.90
2011,06,14,12,26,13.80
2011,06,14,12,27,10.10
2011,06,14,12,28,6.70
2011,06,14,12,29,10.00
2011,06,14,12,30,5.70
2011,06,14,12,31,12.00
2011,06,14,12,32,12.90
2011,06,14,12,33,11.50
2011,06,14,12,34,8.20
2011,06,14,12,35,10.00
2011,06,14,12,36,10.50
2011,06,14,12,37,11.30
2011,06,14,12,38,9.40
2011,06,14,12,39,8.10
2011,06,14,12,40,10.50
2011,06,14,12,41,11.70
2011,06,14,12,42,10.60
2011,06,14,12,43,11.70
2011,06,14,12,44,9.90
2011,06,14,12,45,9.80
2011,06,14,12,46,12.80
2011,06,14,12,47,12.30
2011,06,14,12,48,7.10
2011,06,14,12,49,12.30
2011,06,14,12,50,10.80
2011,06,14,12,51,9.70
2011,06,14,12,52,15.60
2011,06,14,12,53,8.50
2011,06,14,12,54,10.60
2011,06,14,12,55,7.40
2011,06,14,12,56,12.20
2011,06,14,12,57,11.10
2011,06,14,12,58,8.20
2011,06,14,12,59,9.80
2011,06,14,13,00,11.60
2011,06,14,13,01,11.30
2011,06,14,13,02,16.80
2011,06,14,13,03,15.40
2011,06,14,13,04,13.90
2011,06,14,13,05,11.90
2011,06,14,13,06,12.00
2011,06,14,13,07,12.90
2011,06,14,13,08,13.60
2011,06,14,13,09,16.00
2011,06,14,13,10,12.70
2011,06,14,13,11,17.10
2011,06,14,13,12,11.70
2011,06,14,13,13,8.60
2011,06,14,13,14,17.80
2011,06,14,13,15,11.40
2011,06,14,13,16,13.80
2011,06,14,13,17,10.10
2011,06,14,13,18,11.30
2011,06,14,13,19,6.10
2011,06,14,13,20,9.50
2011,06,14,13,21,16.90
2011,06,14,13,22,11.80
2011,06,14,13,23,10.30
2011,06,14,13,24,12.50
2011,06,14,13,25,10.60
2011,06,14,13,26,13.10
2011,06,14,13,27,10.60
2011,06,14,13,28,6.80
2011,06,14,13,29,11.90
2011,06,14,13,30,6.70
2011,06,14,13,31,6.70
2011,06,14,13,32,9.20
2011,06,14,13,33,7.20
2011,06,14,13,34,9.70
2011,06,14,13,35,12.20
2011,06,14,13,36,11.20
2011,06,14,13,37,8.80
2011,06,14,13,38,12.70
2011,06,14,13,39,11.00
2011,06,14,13,40,11.30
2011,06,14,13,41,14.20
2011,06,14,13,42,11.60
2011,06,14,13,43,13.20
2011,06,14,13,44,12.70
2011,06,14,13,45,7.30
2011,06,14,13,46,10.40
2011,06,14,13,47,12.00
2011,06,14,13,48,10.80
2011,06,14,13,49,7.70
2011,06,14,13,50,9.20
2011,06,14,13,51,9.10
2011,06,14,13,52,9.00
2011,06,14,13,53,12.20
2011,06,14,13,54,9.00
2011,06,14,13,55,10.30
2011,06,14,13,56,10.80
2011,06,14,13,57,10.30
2011,06,14,13,58,5.80
2011,06,14,13,59,7.70
2011,06,14,14,00,3.50
2011,06,14,14,01,9.40
2011,06,14,14,02,11.30
2011,06,14,14,03,8.30
2011,06,14,14,04,7.90
2011,06,14,14,05,6.80
2011,06,14,14,06,4.10
2011,06,14,14,07,10.70
2011,06,14,14,08,8.60
2011,06,14,14,09,11.60
2011,06,14,14,10,11.80
2011,06,14,14,11,10.40
2011,06,14,14,12,10.20
2011,06,14,14,13,11.10
2011,06,14,14,14,10.10
2011,06,14,14,15,6.50
2011,06,14,14,16,12.00
2011,06,14,14,17,22.40
2011,06,14,14,18,13.40
2011,06,14,14,19,12.70
2011,06,14,14,20,11.50
2011,06,14,14,21,7.90
2011,06,14,14,22,9.50
2011,06,14,14,23,13.30
2011,06,14,14,24,14.80
2011,06,14,14,25,14.70
2011,06,14,14,26,14.90
2011,06,14,14,27,13.60
2011,06,14,14,28,12.60
2011,06,14,14,29,14.60
2011,06,14,14,30,17.80
2011,06,14,14,31,9.80
2011,06,14,14,32,10.70
2011,06,14,14,33,11.10
2011,06,14,14,34,13.00
2011,06,14,14,35,11.40
2011,06,14,14,36,12.20
2011,06,14,14,37,11.20
2011,06,14,14,38,10.00
2011,06,14,14,39,11.90
2011,06,14,14,40,13.70
2011,06,14,14,41,11.10
2011,06,14,14,42,15.90
2011,06,14,14,43,13.30
2011,06,14,14,44,14.00
2011,06,14,14,45,11.00
2011,06,14,14,46,13.00
2011,06,14,14,47,12.90
2011,06,14,14,48,15.00
2011,06,14,14,49,16.70
2011,06,14,14,50,14.10
2011,06,14,14,51,13.00
2011,06,14,14,52,13.90
2011,06,14,14,53,11.70
2011,06,14,14,54,5.40
2011,06,14,14,55,9.90
2011,06,14,14,56,11.30
2011,06,14,14,57,16.50
2011,06,14,14,58,20.20
2011,06,14,14,59,10.90
2011,06,14,15,00,10.00
2011,06,14,15,01,9.30
2011,06,14,15,02,8.90
2011,06,14,15,03,13.80
2011,06,14,15,04,6.90
2011,06,14,15,05,10.00
2011,06,14,15,06,14.70
2011,06,14,15,07,7.20
2011,06,14,15,08,11.20
2011,06,14,15,09,13.20
2011,06,14,15,10,12.60
2011,06,14,15,11,11.20
2011,06,14,15,12,13.20
2011,06,14,15,13,10.00
2011,06,14,15,14,9.70
2011,06,14,15,15,17.60
2011,06,14,15,16,12.10
2011,06,14,15,17,9.90
2011,06,14,15,18,12.10
2011,06,14,15,19,10.40
2011,06,14,15,20,13.10
2011,06,14,15,21,16.80
2011,06,14,15,22,11.10
2011,06,14,15,23,12.30
2011,06,14,15,24,17.20
2011,06,14,15,25,11.80
2011,06,14,15,26,13.50
2011,06,14,15,27,10.20
2011,06,14,15,28,12.60
2011,06,14,15,29,17.20
2011,06,14,15,30,10.20
2011,06,14,15,31,8.70
2011,06,14,15,32,7.50
2011,06,14,15,33,8.60
2011,06,14,15,34,11.20
2011,06,14,15,35,7.90
2011,06,14,15,36,7.90
2011,06,14,15,37,11.10
2011,06,14,15,38,7.40
2011,06,14,15,39,8.10
2011,06,14,15,40,10.90
2011,06,14,15,41,9.60
2011,06,14,15,42,10.30
2011,06,14,15,43,17.30
2011,06,14,15,44,10.90
2011,06,14,15,45,17.00
2011,06,14,15,46,11.30
2011,06,14,15,47,10.50
2011,06,14,15,48,17.60
2011,06,14,15,49,8.30
2011,06,14,15,50,11.90
2011,06,14,15,51,14.20
2011,06,14,15,52,12.50
2011,06,14,15,53,11.00
2011,06,14,15,54,14.30
2011,06,14,15,55,10.70
2011,06,14,15,56,12.10
2011,06,14,15,57,12.00
2011,06,14,15,58,9.50
2011,06,14,15,59,13.70
2011,06,14,16,00,18.60
2011,06,14,16,01,11.50
2011,06,14,16,02,15.00
2011,06,14,16,03,13.70
2011,06,14,16,04,15.60
2011,06,14,16,05,11.30
2011,06,14,16,06,13.70
2011,06,14,16,07,10.20
2011,06,14,16,08,7.30
2011,06,14,16,09,12.00
2011,06,14,16,10,11.50
2011,06,14,16,11,6.10
2011,06,14,16,12,9.00
2011,06,14,16,13,15.60
2011,06,14,16,14,13.90
2011,06,14,16,15,15.10
2011,06,14,16,16,10.10
2011,06,14,16,17,12.70
2011,06,14,16,18,10.50
2011,06,14,16,19,14.70
2011,06,14,16,20,13.20
2011,06,14,16,21,11.30
2011,06,14,16,22,12.40
2011,06,14,16,23,13.10
2011,06,14,16,24,10.80
2011,06,14,16,25,12.40
2011,06,14,16,26,13.00
2011,06,14,16,27,16.40
2011,06,14,16,28,10.20
2011,06,14,16,29,10.70
2011,06,14,16,30,12.40
2011,06,14,16,31,7.20
2011,06,14,16,32,7.80
2011,06,14,16,33,6.70
2011,06,14,16,34,10.30
2011,06,14,16,35,8.50
2011,06,14,16,36,7.30
2011,06,14,16,37,7.40
2011,06,14,16,38,5.10
2011,06,14,16,39,10.70
2011,06,14,16,40,14.10
2011,06,14,16,41,11.90
2011,06,14,16,42,14.00
2011,06,14,16,43,10.20
2011,06,14,16,44,16.30
2011,06,14,16,45,12.00
2011,06,14,16,46,6.90
2011,06,14,16,47,5.70
2011,06,14,16,48,6.40
2011,06,14,16,49,8.70
2011,06,14,16,50,9.30
2011,06,14,16,51,17.60
2011,06,14,16,52,9.40
2011,06,14,16,53,9.20
2011,06,14,16,54,11.50
2011,06,14,16,55,9.90
2011,06,14,16,56,13.60
2011,06,14,16,57,8.10
2011,06,14,16,58,9.20
2011,06,14,16,59,10.10
2011,06,14,17,00,9.00
2011,06,14,17,01,7.50
2011,06,14,17,02,8.50
2011,06,14,17,03,10.80
2011,06,14,17,04,8.90
2011,06,14,17,05,6.00
2011,06,14,17,06,7.70
2011,06,14,17,07,5.90
2011,06,14,17,08,9.60
2011,06,14,17,09,8.30
2011,06,14,17,10,13.60
2011,06,14,17,11,11.70
2011,06,14,17,12,10.90
2011,06,14,17,13,7.50
2011,06,14,17,14,6.70
2011,06,14,17,15,7.40
2011,06,14,17,16,14.80
2011,06,14,17,17,10.80
2011,06,14,17,18,10.00
2011,06,14,17,19,13.90
2011,06,14,17,20,13.50
2011,06,14,17,21,11.60
2011,06,14,17,22,10.60
2011,06,14,17,23,11.60
2011,06,14,17,24,12.00
2011,06,14,17,25,13.10
2011,06,14,17,26,17.00
2011,06,14,17,27,8.40
2011,06,14,17,28,9.70
2011,06,14,17,29,6.40
2011,06,14,17,30,11.90
2011,06,14,17,31,10.30
2011,06,14,17,32,8.50
2011,06,14,17,33,12.40
2011,06,14,17,34,7.80
2011,06,14,17,35,8.70
2011,06,14,17,36,11.50
2011,06,14,17,37,6.70
2011,06,14,17,38,5.80
2011,06,14,17,39,6.00
2011,06,14,17,40,6.10
2011,06,14,17,41,11.80
2011,06,14,17,42,14.40
2011,06,14,17,43,15.30
2011,06,14,17,44,10.20
2011,06,14,17,45,9.10
2011,06,14,17,46,11.90
2011,06,14,17,47,10.30
2011,06,14,17,48,13.00
2011,06,14,17,49,14.90
2011,06,14,17,50,10.70
2011,06,14,17,51,14.40
2011,06,14,17,52,11.30
2011,06,14,17,53,12.80
2011,06,14,17,54,12.10
2011,06,14,17,55,12.90
2011,06,14,17,56,10.00